Wind_Gust
9 8 10 11 5 8 8 5 7 8 4 6 7 4 11 3 8 15 17 20 16 12 21 17 18 17 16 16 18 12 10 10 10 13 14 11 6 13 19 21 22 21 21 18 15 17 17 18 20 22 21 23 22 22 23 23 23 22 22 22 21 20 19 19 19 18 18 17 17 17 18 18 18 15 12 11 15 14 13 13 14 15 14 14 14 13 13 13 13 13 14 14 14 14 14 14 13
7 7 8 6 7 6 9 6 8 6 9 9 11 2 8 8 8 18 21 19 20 28 24 22 18 29 25 18 16 11 11 13 6 11 6 9 15 14 15 22 24 25 20 19 17 15 15 18 20 21 22 23 22 22 22 22 22 22 22 22 21 21 20 18 18 18 18 17 17 17 17 17 15 13 11 9 8 13 13 14 15 15 15 14 13 13 13 13 13 13 13 13 13 14 13 14 13
5 9 10 3 3 4 5 4 8 3 5 7 14 7 8 7 8 9 19 14 17 20 17 16 24 25 25 25 18 17 20 14 15 11 14 13 22 10 14 16 18 20 21 18 17 17 14 16 19 20 22 21 22 22 22 22 22 22 22 21 20 19 19 19 17 17 17 16 17 17 16 16 14 13 11 9 12 15 15 14 16 15 15 13 13 13 13 12 12 12 12 12 12 13 13 13 13
6 8 15 12 6 4 6 6 7 6 6 9 13 7 8 20 20 9 14 11 20 21 22 24 24 16 35 32 34 25 23 13 13 18 23 21 12 21 16 17 17 18 16 16 15 15 14 19 19 20 21 22 21 22 21 22 22 22 21 21 20 19 19 18 17 17 17 17 16 17 16 15 13 12 12 14 17 17 16 14 15 15 14 13 13 13 13 12 11 11 11 11 12 12 12 13 12
9 11 10 12 10 7 5 6 5 6 8 7 8 14 16 9 17 12 8 24 20 26 25 23 21 7 8 19 17 32 25 13 16 9 21 11 17 19 20 18 17 18 16 14 14 13 14 23 19 19 20 22 21 21 21 21 21 21 21 19 19 18 18 18 18 18 18 17 16 15 16 15 14 15 15 17 17 17 16 15 14 14 14 13 11 11 11 10 10 9 10 10 11 11 12 12 13
10 10 6 6 12 10 8 6 7 10 15 9 10 14 12 19 16 24 14 14 20 22 19 17 28 20 15 6 11 8 14 19 16 10 17 17 22 23 22 19 18 16 15 15 14 13 14 22 19 19 20 22 21 21 21 20 20 21 20 20 19 18 17 17 18 18 18 17 15 14 14 15 14 13 15 16 17 17 17 15 14 14 13 13 12 11 10 9 8 9 9 10 11 11 11 12 13
13 10 7 5 11 6 12 6 10 10 19 10 9 11 13 16 14 25 14 16 7 10 7 15 20 19 21 12 9 6 7 14 21 18 18 25 22 23 23 20 18 17 15 15 14 13 15 18 18 18 19 20 21 21 20 20 20 20 20 19 18 17 17 17 18 18 17 16 15 14 14 14 14 13 13 15 15 16 16 14 14 14 12 11 11 10 9 9 9 9 9 10 10 10 11 12 13
4 4 9 6 8 6 5 6 10 9 13 12 6 10 15 8 10 14 15 22 18 21 10 23 16 18 5 3 15 8 6 11 18 20 25 27 24 23 22 21 20 17 16 14 13 12 19 17 17 17 20 19 20 20 20 20 20 19 19 18 18 18 17 18 17 17 16 16 16 15 14 14 14 13 13 13 14 15 15 14 14 13 11 10 9 9 9 8 9 9 9 9 9 10 12 13 14
6 5 4 6 8 10 5 9 13 8 18 9 7 9 15 6 7 13 13 14 11 10 21 18 20 24 12 12 9 5 12 22 24 27 27 27 25 24 24 20 22 20 17 15 13 13 14 16 15 17 19 19 20 20 19 19 19 19 19 18 17 16 17 17 18 17 16 15 15 15 14 13 13 12 12 13 13 13 13 14 13 13 11 10 9 8 7 7 8 8 8 9 9 11 12 13 14
7 7 9 15 10 9 7 11 5 13 18 13 6 13 15 18 17 12 9 10 16 12 11 8 11 19 13 16 14 7 18 24 27 23 24 26 26 21 21 21 21 23 18 15 13 14 14 19 16 16 16 17 19 18 18 16 17 17 17 17 16 15 16 17 16 16 16 15 14 14 13 13 13 12 12 12 13 12 13 13 13 12 11 10 9 7 7 7 7 8 8 9 10 11 12 14 14
12 8 6 12 8 12 15 12 8 13 15 14 11 15 10 7 8 15 7 8 18 15 14 22 24 22 16 6 9 8 20 25 27 29 24 25 23 24 21 20 22 22 21 17 15 14 14 16 21 16 15 15 16 15 14 15 16 15 14 14 14 15 17 17 17 16 15 14 14 14 12 13 13 12 12 13 13 12 12 12 12 11 10 9 8 6 6 6 6 6 8 8 10 11 12 13 14
8 8 9 13 15 16 13 14 9 15 17 16 16 14 5 6 5 13 11 8 12 17 18 19 19 22 17 15 11 18 19 19 21 24 24 23 24 22 21 18 19 18 19 19 16 13 13 14 16 19 18 15 14 16 15 16 15 14 15 15 14 16 16 16 16 15 14 14 13 13 13 13 12 12 12 12 12 12 12 12 11 11 10 8 6 5 5 5 5 6 7 8 10 11 12 13 13
10 5 5 11 16 9 9 10 13 10 15 17 6 18 11 8 8 9 9 12 17 17 20 26 25 7 13 11 11 12 16 13 21 24 24 23 22 20 18 19 19 19 18 18 17 14 13 12 14 15 15 19 17 17 16 17 16 15 14 15 15 16 17 16 16 15 14 13 13 12 13 12 13 13 13 11 13 12 11 11 11 10 9 7 5 5 4 4 5 6 7 8 9 10 11 11 12
14 13 11 18 8 13 15 12 8 14 22 16 4 9 15 12 8 14 16 15 11 10 11 25 24 21 15 16 10 14 14 18 22 22 24 22 21 20 19 18 18 18 17 18 17 15 13 12 12 12 15 14 12 17 18 19 17 16 15 14 16 15 15 15 14 14 13 13 13 13 13 13 13 13 13 12 12 12 10 11 9 9 7 6 5 4 4 4 4 6 7 7 8 9 10 11 11
15 8 11 12 11 11 14 25 17 15 24 15 11 6 15 13 9 14 22 11 11 10 12 7 17 20 23 23 17 19 20 24 23 22 24 23 21 20 18 19 17 16 16 15 15 16 14 13 13 11 10 11 11 10 10 19 21 18 16 16 16 16 15 15 14 14 14 13 13 13 14 14 14 14 13 12 11 12 10 10 9 7 6 5 4 4 4 4 4 5 7 7 8 9 9 10 10
15 12 14 16 20 15 16 21 13 16 29 14 10 5 15 22 10 9 11 16 13 13 12 14 13 14 22 16 22 22 22 24 25 25 25 24 20 17 18 16 16 16 15 14 14 13 14 13 11 11 11 10 9 9 10 11 17 20 18 17 17 17 17 16 16 14 14 14 14 14 14 12 12 11 14 11 12 12 11 7 9 7 6 6 5 5 5 4 5 6 6 7 8 9 10 10 9
5 11 17 20 23 16 14 17 17 36 9 12 4 4 11 25 12 8 12 17 18 11 16 13 15 13 29 23 23 26 25 24 24 26 24 20 20 17 15 15 15 14 13 14 14 14 13 13 13 12 12 12 11 10 9 10 14 18 16 18 18 18 17 17 16 16 14 13 12 12 12 8 6 6 9 5 11 7 10 10 10 9 7 6 6 6 5 5 5 6 6 7 9 9 9 9 9
9 21 23 23 17 19 13 19 18 8 15 18 12 7 8 16 19 19 15 17 14 10 16 16 16 13 17 24 26 29 28 28 26 26 22 21 18 19 18 16 18 19 18 17 13 14 15 14 14 13 13 16 13 11 10 9 9 14 7 9 10 13 14 14 13 8 12 6 13 11 6 6 5 5 6 11 5 8 9 11 10 10 9 8 6 6 6 5 6 7 8 8 9 8 9 6 5
20 17 20 32 18 17 12 12 12 13 13 7 14 10 11 15 15 14 25 13 15 13 11 13 10 11 16 26 25 29 29 27 25 25 26 23 22 23 22 19 19 18 18 18 17 16 16 16 14 14 13 15 15 12 10 8 8 7 6 6 8 11 10 11 6 9 5 7 6 6 7 5 6 5 6 9 7 10 8 12 11 10 10 9 8 7 6 7 8 9 9 10 9 9 7 5 3
19 19 27 28 10 10 11 10 12 13 9 12 15 19 21 18 16 14 16 14 17 16 11 6 9 16 21 23 24 27 28 28 27 28 28 25 23 24 22 23 18 20 20 20 21 17 17 16 16 15 15 15 15 13 10 8 7 8 7 6 7 8 7 8 7 7 8 6 8 7 7 6 6 7 11 16 14 8 9 11 12 10 10 10 9 6 7 7 9 10 11 11 8 5 5 5 3
15 22 31 19 11 13 9 12 13 12 13 13 21 17 21 17 14 16 14 20 15 13 20 14 12 20 21 24 25 26 26 25 23 24 24 23 22 22 26 28 27 23 19 17 16 18 17 17 16 14 15 15 16 14 13 10 9 9 8 8 7 8 6 7 8 8 8 8 8 8 8 6 8 8 8 7 7 7 6 6 6 5 3 3 6 4 5 6 5 7 6 6 6 5 5 5 4
11 22 20 9 12 14 12 15 15 17 17 21 19 21 26 8 9 16 18 21 31 18 11 18 26 23 26 25 26 27 26 25 23 23 25 26 26 22 16 13 12 15 16 19 19 18 17 17 17 16 16 15 15 15 14 14 14 11 10 9 8 7 7 9 9 9 9 10 8 8 7 7 8 9 8 8 6 8 7 7 7 6 4 5 5 7 6 5 6 6 6 6 6 4 4 4 3
27 18 9 13 10 14 10 12 13 15 21 22 19 19 13 14 13 13 18 24 20 22 14 15 24 32 33 30 28 23 20 22 23 25 24 23 23 21 21 19 22 21 20 19 18 17 18 16 15 16 17 17 16 14 13 12 12 11 10 9 11 10 8 9 11 9 10 9 9 8 9 8 8 8 7 7 7 7 7 7 8 7 6 7 6 7 6 6 6 6 6 4 4 3 3 4 7
20 37 11 12 13 22 12 16 11 16 19 22 24 12 22 16 22 16 22 17 15 19 19 23 23 30 22 28 28 30 29 28 29 26 27 28 28 28 26 24 20 17 18 18 18 18 19 18 17 17 17 17 15 14 14 13 11 11 11 12 11 12 11 11 11 11 10 10 9 11 9 8 9 9 6 7 8 7 8 7 7 7 6 6 6 5 5 5 5 5 3 3 2 1 3 6 10
26 34 16 13 15 19 18 17 14 10 13 14 10 14 23 23 21 16 24 22 18 16 19 22 24 20 23 29 27 26 25 21 20 19 14 18 20 20 20 20 20 19 20 19 20 20 20 21 19 19 18 17 17 16 14 13 12 11 10 11 13 12 12 12 13 10 9 10 10 11 8 10 8 8 10 8 6 7 6 6 8 7 6 6 5 4 4 4 5 4 3 3 1 2 2 8 12
28 27 14 13 16 13 12 14 18 20 19 12 8 17 22 20 20 24 20 24 20 18 18 23 24 25 28 27 28 26 25 25 22 20 21 16 18 19 20 22 22 23 24 22 21 21 20 21 22 21 20 20 18 16 15 14 13 13 12 13 13 12 12 13 8 9 11 11 11 10 11 12 11 11 9 7 8 7 6 6 7 7 6 5 5 5 5 4 5 3 3 2 2 2 4 9 12
14 13 15 18 13 12 14 18 17 19 23 17 18 14 16 15 20 27 19 21 26 16 22 32 35 32 30 26 27 28 30 28 30 23 15 14 17 23 21 20 22 23 21 21 21 21 21 22 23 22 20 19 16 16 15 15 13 14 14 13 11 13 13 11 10 11 10 11 10 10 10 11 10 8 10 9 6 6 6 7 7 6 5 5 4 5 4 4 4 3 1 2 4 4 9 9 13
16 16 14 14 18 17 9 21 26 16 28 22 18 20 15 19 19 28 18 23 35 29 20 31 32 35 37 31 28 26 27 28 25 24 26 22 27 27 25 27 24 21 23 23 22 20 22 23 23 21 21 20 18 17 16 15 15 15 14 11 13 13 11 11 12 11 11 10 9 10 11 11 10 10 9 8 8 7 7 7 7 7 5 5 5 5 4 3 3 1 2 2 2 7 12 11 11
8 8 13 11 13 32 21 20 24 28 30 24 18 17 21 21 31 28 28 22 18 23 22 31 34 32 32 33 31 27 28 23 24 25 29 33 29 27 31 26 27 24 20 23 23 22 23 23 23 22 21 19 18 17 17 16 16 15 13 13 13 12 12 11 12 11 11 8 9 10 11 10 9 10 9 9 8 8 7 7 6 6 5 4 4 5 4 5 4 4 5 4 8 10 14 13 15
10 6 8 12 15 20 22 25 21 21 31 25 27 33 24 29 28 26 21 28 24 23 18 35 30 30 28 27 24 24 22 22 25 29 28 25 27 26 26 24 24 24 22 21 21 24 23 21 21 20 20 20 19 17 16 17 16 16 14 14 12 11 11 12 13 12 9 9 10 9 9 8 8 7 9 7 7 7 7 7 7 7 6 5 4 4 5 4 5 5 8 11 12 11 14 13 17
12 9 7 15 11 25 18 33 26 29 22 20 25 37 27 24 24 22 18 23 29 34 20 31 29 27 26 26 27 28 24 30 32 31 25 24 25 26 27 23 23 21 20 21 26 25 23 22 21 20 21 20 19 17 16 17 16 17 15 13 12 13 13 13 12 9 10 10 9 9 8 8 7 7 7 8 8 7 7 7 6 6 6 5 5 5 6 4 4 7 10 15 10 10 12 11 16
6 10 22 11 21 21 17 22 27 38 30 19 18 36 36 22 21 19 18 20 25 29 28 25 27 29 26 23 24 23 24 26 28 23 17 19 22 24 26 27 24 22 24 24 24 24 24 21 21 19 20 20 19 19 16 17 17 17 15 13 13 12 12 12 10 11 11 10 10 10 8 7 7 8 8 8 8 7 7 7 6 4 4 4 5 5 4 5 4 9 7 14 16 11 15 11 11
9 14 7 27 20 22 18 19 23 31 33 20 27 33 29 27 23 14 17 19 21 26 29 20 25 25 29 28 27 25 21 15 15 18 18 17 17 23 25 25 27 25 23 24 25 23 22 22 22 21 23 23 20 18 17 14 16 15 14 14 14 13 12 11 9 11 10 10 10 10 9 8 8 8 9 8 9 8 7 6 6 5 4 4 5 5 6 4 5 11 9 8 14 14 15 14 10
16 9 22 15 27 25 30 12 22 24 30 26 23 38 29 11 17 22 13 16 17 25 24 18 28 27 25 25 25 25 25 25 27 25 23 21 20 20 22 24 23 22 20 22 24 27 26 24 24 23 22 21 20 20 17 17 17 17 15 14 12 13 11 10 11 12 11 10 10 10 9 9 9 8 7 8 7 7 6 6 5 6 5 5 6 5 4 4 6 11 12 10 13 16 13 15 13
23 15 12 21 19 20 21 33 22 22 26 30 22 27 31 15 7 19 20 12 16 23 23 18 25 27 26 24 24 23 24 28 32 31 27 24 21 21 22 21 20 21 20 20 21 22 22 22 21 20 20 19 17 17 15 15 14 13 12 12 11 10 8 9 11 10 11 10 10 10 10 9 9 8 8 8 9 8 7 6 6 7 6 6 7 6 5 6 6 7 14 11 9 10 14 12 15
17 10 10 8 18 22 27 22 17 20 22 28 30 33 29 21 16 11 11 15 19 20 18 20 22 27 29 27 24 24 25 29 30 29 27 25 25 24 23 21 20 18 18 20 22 22 22 22 19 19 19 20 15 14 15 14 14 15 14 7 9 9 9 10 8 10 10 10 10 10 9 9 8 9 8 8 8 7 7 7 7 6 7 7 8 8 8 9 11 12 13 15 13 11 9 12 13
12 11 10 14 14 18 12 15 14 13 25 23 27 34 33 20 22 16 15 9 17 18 15 16 20 24 25 25 25 26 26 30 29 23 22 24 24 23 20 19 20 18 20 22 24 24 25 27 23 23 20 19 19 18 17 19 19 15 12 16 14 10 12 10 10 8 9 9 10 10 9 10 9 9 8 9 9 9 7 7 7 5 6 7 9 9 7 9 9 13 13 12 17 13 6 5 7
15 15 15 15 14 16 11 14 17 17 22 22 24 30 41 28 18 18 18 16 17 18 16 17 21 24 27 27 26 28 31 25 16 16 19 19 22 21 21 22 22 25 23 24 26 28 25 23 24 23 19 19 19 19 18 17 16 19 16 13 10 9 12 13 11 9 9 9 9 9 9 8 9 9 9 8 8 8 8 8 7 8 7 8 6 5 7 10 11 13 14 11 5 15 14 9 12
17 20 17 16 18 12 16 22 19 24 17 16 24 35 37 31 24 15 22 23 25 20 20 22 25 23 24 28 29 29 24 16 23 27 27 27 25 23 24 24 26 29 27 29 26 23 22 23 21 20 20 20 18 18 19 19 10 12 14 13 12 11 5 8 12 10 9 10 9 8 9 10 10 9 9 9 9 8 8 8 8 8 6 7 8 7 9 10 12 14 13 16 10 4 8 6 6
13 16 21 25 13 11 14 14 13 21 34 19 14 30 40 26 22 22 17 25 25 19 17 17 21 25 27 27 26 29 26 23 22 23 25 25 25 26 23 23 24 21 23 21 23 26 24 22 20 21 21 19 18 17 17 12 13 9 7 12 9 9 12 10 9 8 9 8 9 8 8 10 9 9 9 8 7 7 8 9 8 8 8 7 10 10 9 10 10 11 11 12 15 11 8 9 3
15 16 18 23 20 18 16 16 18 16 22 23 21 23 25 19 24 25 16 18 25 28 20 15 16 21 28 26 25 29 31 28 28 25 23 24 24 26 28 27 24 25 27 28 28 28 26 27 25 24 22 22 18 18 16 15 15 12 12 11 11 14 11 11 12 9 10 10 10 8 10 8 8 8 8 8 8 8 7 8 9 9 8 6 7 10 11 12 12 12 14 13 13 17 11 10 7
18 17 17 17 18 18 15 17 17 14 17 31 28 41 43 15 20 31 26 25 25 25 25 22 18 16 19 24 26 24 27 30 35 33 32 30 31 28 23 22 25 26 28 29 28 27 23 25 23 22 20 20 20 19 19 19 18 19 17 18 18 17 18 18 19 19 14 13 13 7 6 8 8 7 8 8 8 8 8 8 7 8 8 9 8 9 9 9 10 11 14 16 12 10 17 10 11
15 21 12 18 20 21 20 21 16 14 23 17 32 41 47 19 19 22 26 26 24 25 19 24 23 18 19 28 29 28 26 21 23 31 32 31 29 28 27 28 29 28 30 26 23 23 22 23 23 23 22 20 20 19 20 20 19 19 20 19 17 18 20 14 10 11 13 9 9 10 8 6 8 10 7 7 8 8 7 7 8 8 7 8 6 7 7 9 11 12 11 10 13 11 10 13 12
26 10 14 14 17 22 24 25 22 20 15 30 21 34 42 32 22 14 21 24 28 26 22 21 24 23 22 24 27 28 31 29 29 27 28 31 32 32 32 32 30 33 28 22 23 22 25 26 24 23 21 21 19 20 21 22 22 19 18 17 17 17 18 16 15 13 9 10 10 9 9 8 8 8 9 7 8 8 8 8 8 8 8 6 8 8 9 7 8 6 8 9 9 11 12 15 11
21 13 15 17 15 17 20 23 25 23 15 29 25 12 34 35 16 13 20 27 28 30 29 28 27 26 24 26 27 30 33 33 32 32 32 31 30 31 32 32 31 28 23 27 28 27 25 22 22 21 21 20 20 21 23 21 22 21 20 18 16 13 14 14 12 11 11 10 11 7 8 7 7 7 7 8 7 8 8 9 8 8 9 7 9 9 6 7 8 10 8 9 10 9 8 9 14
21 19 12 18 19 19 18 20 20 24 22 29 29 21 22 20 15 22 17 27 32 34 36 34 33 30 21 24 27 29 30 32 33 36 36 34 34 35 35 34 29 26 27 23 19 19 21 20 22 23 22 21 21 22 23 21 19 20 20 19 19 15 13 12 12 14 13 11 12 10 8 9 8 8 6 6 8 6 7 8 9 9 9 8 8 9 8 8 6 7 9 10 9 9 5 8 12
16 18 22 19 15 18 21 21 23 21 32 29 29 25 16 25 16 26 30 39 33 30 31 32 30 25 20 25 28 30 30 30 31 32 34 36 35 36 33 31 27 22 18 19 20 22 21 22 23 24 24 21 21 24 22 22 20 20 21 20 20 19 17 18 16 15 14 12 14 11 10 9 8 9 8 6 7 7 7 7 9 8 7 8 10 9 8 9 7 8 8 7 9 12 10 11 9
19 23 19 14 18 10 16 16 17 31 28 20 25 25 18 29 15 18 25 22 30 30 23 23 23 21 23 20 22 26 32 32 31 31 30 30 30 28 23 21 20 22 20 22 22 21 22 23 24 24 21 21 21 23 22 22 21 20 18 20 21 21 21 21 21 20 19 18 15 14 9 8 8 8 7 7 6 7 8 7 7 8 8 8 9 8 7 8 8 8 8 9 9 8 10 12 11
21 17 13 17 17 20 25 22 28 24 30 18 18 18 25 32 24 20 24 30 27 25 27 25 23 21 21 21 23 25 27 29 33 32 31 30 29 27 24 23 22 21 27 28 28 27 25 23 24 25 24 22 23 22 23 22 20 20 21 20 19 20 21 21 20 19 17 18 16 14 13 13 10 11 10 11 7 8 10 10 9 10 8 6 8 8 6 7 9 9 9 8 9 10 12 12 12
13 18 16 20 22 18 17 17 18 17 22 24 22 12 35 13 17 27 34 33 28 23 25 24 24 23 24 26 25 26 27 28 30 32 33 33 33 30 29 29 30 31 29 29 27 26 25 26 26 26 25 23 20 21 22 22 21 20 19 20 20 20 20 20 19 19 18 16 17 17 17 16 15 14 13 11 10 9 8 9 9 8 8 8 8 8 8 7 8 10 9 10 8 7 8 10 12
11 11 20 17 20 26 19 19 23 20 16 24 23 32 24 19 17 16 25 28 28 26 26 20 23 25 26 27 28 27 28 27 31 31 31 31 32 31 31 30 31 31 29 27 25 25 23 23 25 25 23 23 23 23 21 22 21 19 18 19 20 19 20 19 18 18 18 17 16 16 13 11 14 12 14 10 9 10 9 9 9 10 8 8 8 8 9 8 8 10 9 9 9 8 10 12 11
21 20 14 16 22 14 17 15 14 16 24 27 28 31 13 28 9 16 23 20 21 24 24 17 21 21 22 24 27 29 30 30 29 29 30 31 33 31 30 31 31 29 27 27 26 27 26 28 27 27 27 25 23 22 22 23 21 19 17 19 20 19 17 17 15 14 15 16 17 17 15 12 10 10 9 10 8 11 11 10 9 9 8 8 8 9 9 9 8 11 10 10 10 6 12 11 10
13 7 17 19 12 14 16 18 10 6 11 30 17 17 24 17 20 19 18 21 23 22 28 31 24 22 22 25 24 25 29 31 31 30 30 30 28 28 31 30 29 26 27 29 30 31 31 29 26 25 22 19 21 23 22 20 20 19 19 19 19 19 19 19 20 17 17 15 15 15 15 12 10 10 11 9 11 9 10 11 10 9 9 8 9 9 9 9 9 10 11 10 11 7 11 11 10
15 15 13 13 11 14 20 18 14 12 15 21 18 16 12 21 39 15 17 17 24 25 25 26 27 25 23 26 25 25 27 28 31 32 32 34 34 34 31 29 29 32 32 31 29 25 25 25 26 27 24 25 24 23 23 22 22 21 20 20 20 21 20 19 18 18 16 16 13 14 13 13 13 12 12 11 11 11 10 11 11 9 9 9 10 9 9 9 10 10 9 9 9 9 11 9 9
18 18 7 12 12 16 13 21 19 11 11 13 15 15 23 22 20 16 22 26 25 29 25 26 31 29 29 25 24 24 27 28 28 29 30 30 30 31 32 31 30 28 25 27 28 26 23 22 23 25 27 28 26 24 21 21 21 21 21 22 21 20 18 18 17 17 16 17 17 16 16 15 12 12 13 12 12 12 11 10 11 10 10 10 9 10 10 10 10 11 8 11 7 10 12 10 8
15 9 15 11 12 12 12 24 12 12 11 7 16 14 29 22 19 12 19 16 22 24 28 29 32 29 29 27 27 28 30 29 28 29 31 32 32 32 33 32 28 27 26 25 24 23 24 25 23 21 19 18 18 20 21 22 22 21 19 19 18 19 19 19 18 19 18 18 17 17 15 13 15 13 13 13 13 12 12 12 10 12 11 10 10 9 10 10 10 11 10 11 9 10 12 12 9
11 12 11 10 15 11 12 10 15 13 15 13 14 16 17 16 17 22 26 21 16 21 22 24 28 28 29 29 28 28 30 29 29 31 32 33 32 30 31 28 26 25 23 23 25 28 27 23 22 22 24 24 25 24 23 22 22 21 22 22 21 19 19 19 19 19 19 17 16 16 16 15 14 14 14 14 13 13 12 12 11 12 12 12 11 11 10 11 11 11 9 10 9 11 13 10 11
9 13 14 12 6 11 7 14 12 26 18 16 13 21 19 21 11 17 27 29 20 17 23 26 21 23 26 28 27 30 29 28 31 31 32 32 30 29 24 22 20 22 23 24 25 22 20 22 23 24 24 24 25 25 24 23 22 22 23 23 22 19 20 19 19 19 18 18 17 17 16 15 16 14 15 15 14 13 12 12 12 11 11 11 11 11 10 11 13 12 10 10 11 12 11 10 10
Wind_Speed
4 4 4 6 3 0 0 1 0 2 1 2 3 1 1 1 3 5 1 2 2 2 1 5 10 7 4 7 12 7 5 4 5 5 5 1 1 5 7 12 13 12 11 9 8 9 10 13 15 17 17 17 16 17 16 17 17 17 18 17 17 15 15 15 14 12 12 12 13 14 14 14 14 12 9 9 13 12 10 11 12 12 11 11 10 10 10 10 10 9 9 8 8 9 9 10 10
1 4 4 3 2 2 2 2 2 3 4 2 4 1 2 5 4 6 8 10 1 2 2 6 6 16 17 13 11 6 1 6 4 3 1 3 7 4 8 12 14 15 11 9 9 8 8 11 16 16 16 16 17 17 16 16 17 17 17 17 17 16 15 14 14 13 11 11 12 13 13 12 11 10 8 7 6 11 9 10 11 11 12 11 9 10 10 9 9 9 8 8 8 8 9 10 10
1 6 6 0 1 1 1 1 2 1 2 2 3 2 3 4 2 6 7 4 8 6 4 7 10 9 8 12 7 7 6 4 3 2 2 7 10 4 8 11 11 13 13 9 9 9 8 10 15 15 17 16 16 16 16 16 16 17 17 17 16 15 15 15 14 13 12 11 11 12 12 11 10 9 7 7 10 12 11 11 12 11 11 10 9 10 10 9 8 8 8 8 8 9 10 10 9
2 3 8 4 0 2 0 2 3 3 1 3 4 3 2 3 6 1 5 2 4 10 5 4 3 3 6 3 7 10 5 4 5 7 4 8 4 8 9 10 10 9 8 8 8 8 8 12 15 16 16 16 16 16 16 16 16 16 17 16 15 15 15 14 14 13 12 11 11 11 10 10 9 8 8 11 13 12 11 11 12 11 10 11 10 9 9 8 8 7 7 7 8 9 9 9 9
4 3 1 2 3 0 1 1 2 3 3 2 2 4 0 4 5 7 3 13 6 7 7 5 5 0 2 2 6 5 12 4 3 4 4 4 10 9 10 11 11 10 9 8 8 8 8 18 15 14 15 16 16 15 15 15 16 16 16 15 15 14 14 14 14 13 12 11 10 10 9 9 10 10 11 13 14 13 12 12 11 11 11 10 9 8 8 7 7 6 7 7 8 8 9 9 10
6 5 3 2 2 1 2 0 2 3 6 4 2 4 1 4 4 8 10 4 4 3 5 5 4 4 1 2 0 1 5 7 7 6 7 6 13 12 11 11 10 10 10 9 9 7 8 18 16 15 15 16 15 15 15 14 15 16 15 15 15 14 13 14 14 13 12 11 10 9 8 9 10 10 12 12 13 13 13 12 11 11 11 10 9 8 7 6 6 6 6 7 7 8 9 9 10
3 5 1 1 3 2 4 2 6 6 5 6 3 2 4 4 4 5 7 5 4 2 3 2 10 9 4 1 2 1 1 5 9 5 8 12 15 13 12 11 11 11 10 9 8 7 9 15 14 15 16 15 15 15 14 14 15 15 15 15 14 14 13 14 14 13 11 11 10 10 8 8 10 10 10 12 12 13 13 11 12 11 10 9 8 8 7 6 6 6 7 7 7 8 9 10 11
1 1 2 1 1 1 1 3 5 4 3 7 3 0 3 3 5 2 9 6 3 2 1 3 7 6 2 1 4 1 3 1 7 13 14 13 15 14 12 11 12 11 10 9 8 7 13 13 13 14 17 15 15 14 14 14 14 14 14 14 13 13 13 14 14 13 11 10 10 10 9 8 8 10 10 11 11 11 11 11 12 11 9 8 8 7 6 6 6 6 6 6 7 8 9 11 11
1 1 0 2 3 1 1 5 6 2 2 1 4 3 2 3 2 2 3 5 7 1 1 4 1 6 3 3 1 2 3 6 10 16 16 15 17 15 10 12 13 11 10 9 8 8 8 13 12 13 15 16 16 15 14 13 13 13 14 13 13 13 14 14 14 13 12 10 10 9 9 8 8 9 9 10 10 10 11 11 11 10 9 8 7 6 5 5 6 6 6 6 7 9 10 11 11
1 1 3 2 2 6 3 5 1 6 4 5 3 2 1 3 1 1 1 5 5 5 5 6 6 1 2 3 1 1 2 8 13 13 14 15 15 14 12 11 12 15 11 9 8 7 8 14 12 12 13 14 15 14 14 12 12 13 13 13 13 12 13 14 13 13 12 11 10 9 8 8 8 8 9 9 9 9 10 10 10 9 8 8 7 5 5 5 5 5 6 6 7 9 10 11 11
2 2 2 1 3 4 7 7 5 7 4 2 0 2 2 2 1 3 4 2 4 7 7 10 5 3 2 2 0 1 8 12 15 15 13 15 14 13 11 10 11 12 13 11 9 8 8 9 16 12 11 13 13 12 11 11 11 10 10 11 11 12 13 14 13 13 12 11 10 10 9 8 7 8 9 10 10 9 9 9 9 9 8 7 6 4 4 4 4 4 6 6 8 9 10 11 11
1 1 0 5 6 7 6 6 5 8 8 2 2 4 1 2 2 3 5 2 0 9 9 5 2 1 3 0 2 3 8 8 12 15 14 12 10 12 12 9 11 9 11 11 10 8 7 8 9 14 14 12 12 12 10 11 10 9 10 12 11 12 13 13 13 12 12 11 10 9 8 8 8 8 10 10 9 9 9 9 9 8 8 6 5 4 3 3 4 4 5 6 7 9 10 10 11
2 2 2 2 5 3 3 5 7 6 5 7 3 3 3 5 4 4 3 6 5 7 10 19 5 1 2 2 1 4 6 6 10 15 14 10 10 9 9 10 11 11 10 10 10 8 8 7 8 9 10 15 13 12 11 11 10 10 10 11 11 13 14 13 13 12 11 11 10 10 9 8 8 9 9 9 10 9 8 8 8 7 6 5 3 3 3 3 3 4 5 6 7 8 9 9 9
4 5 5 6 1 4 6 5 3 7 8 5 1 3 3 2 2 1 9 9 2 3 3 6 8 2 1 2 1 6 5 7 10 11 10 11 9 9 11 10 11 11 10 10 9 8 7 7 7 7 9 9 8 11 13 13 12 11 10 10 12 12 12 12 12 11 11 10 10 10 9 9 8 10 10 9 10 9 8 8 7 6 5 4 3 2 2 2 3 4 5 5 6 7 8 8 8
6 2 2 2 3 3 4 8 9 7 9 4 3 3 3 2 3 2 14 4 4 1 1 2 4 3 4 5 5 8 8 11 11 11 10 9 9 9 10 9 11 10 10 9 8 8 8 8 7 6 6 6 7 6 5 10 14 13 11 12 12 9 9 10 11 11 11 10 10 10 10 10 9 9 9 9 9 9 7 8 6 4 4 3 2 2 1 1 2 3 4 5 6 6 6 6 6
5 4 1 4 8 7 4 8 5 8 7 6 5 2 1 3 4 2 5 5 2 0 1 3 3 3 1 8 5 13 14 14 12 12 11 11 8 8 9 10 9 9 9 9 9 7 7 7 6 6 6 6 5 5 6 6 12 14 13 13 12 10 10 9 10 11 11 11 11 10 10 8 9 7 9 6 9 9 9 5 6 4 4 3 3 1 1 1 2 3 4 5 5 5 5 5 5
1 2 5 6 11 8 4 5 7 9 2 6 2 1 3 2 2 3 7 11 4 2 2 2 2 0 6 10 5 15 16 16 14 14 12 9 7 7 8 7 8 8 7 8 9 8 7 8 7 6 6 6 6 6 6 6 8 13 11 12 12 11 11 12 12 11 10 9 8 9 9 5 3 4 5 2 8 4 6 8 7 6 4 4 3 1 0 1 2 3 4 4 4 5 4 4 5
3 6 7 11 7 10 5 8 6 3 6 7 4 4 3 2 2 5 7 10 3 5 8 1 4 3 5 3 8 14 17 18 17 16 13 11 7 8 9 9 9 10 10 9 8 9 9 8 8 7 7 8 7 5 5 5 5 9 4 4 5 7 9 10 8 5 7 2 9 7 4 3 3 3 2 6 2 3 4 7 7 7 5 4 3 2 1 1 2 4 5 5 5 5 5 2 2
7 3 6 15 8 5 8 5 8 4 5 5 9 6 6 6 10 2 5 7 11 7 5 3 5 6 11 9 8 15 17 17 17 17 17 15 12 15 11 10 10 10 10 9 9 10 9 9 8 8 8 8 8 6 5 5 5 4 4 4 3 7 6 7 3 4 2 3 3 3 3 2 3 3 3 4 2 6 4 8 8 7 6 5 4 3 3 3 3 4 6 6 5 5 2 1 1
8 7 11 13 5 5 8 6 7 5 6 6 8 4 8 4 6 7 6 10 12 10 5 2 5 5 8 9 9 11 15 17 18 19 19 17 15 15 13 13 10 12 12 10 11 8 9 9 10 8 9 9 8 6 5 4 4 5 4 3 4 4 5 3 3 3 3 3 3 3 4 3 3 3 5 10 8 4 5 8 8 7 7 6 5 3 3 3 5 5 6 7 4 2 2 1 1
2 7 11 6 5 6 6 7 7 8 6 5 6 3 3 3 3 4 10 8 9 8 8 7 6 11 11 9 6 8 12 16 16 16 17 16 15 12 15 16 15 12 10 9 8 10 11 10 9 9 9 8 9 6 6 4 4 5 4 4 4 4 4 2 2 2 3 3 3 3 3 3 3 3 2 2 2 4 3 2 3 3 1 1 2 1 2 2 2 4 3 3 2 2 2 1 3
1 11 13 4 8 8 8 11 10 8 8 7 6 8 11 3 2 5 7 12 13 7 6 6 11 14 16 15 12 7 7 11 14 14 17 18 18 14 10 7 6 8 9 10 11 10 10 10 10 9 9 9 8 7 6 6 6 5 5 5 4 4 4 2 2 3 3 4 3 3 3 3 3 3 2 3 2 2 3 3 3 2 2 3 1 2 2 2 2 2 3 2 2 2 2 2 3
9 7 4 7 4 7 5 6 7 9 5 8 6 9 4 6 2 6 8 11 6 11 9 7 11 19 20 20 18 15 14 13 14 16 16 15 15 14 13 11 12 11 10 10 10 9 10 10 10 9 10 9 9 7 6 6 5 5 5 5 5 5 3 3 3 4 4 5 3 3 4 4 3 3 3 3 4 2 4 3 3 3 3 3 2 3 3 2 2 2 2 2 2 2 1 2 4
4 11 2 6 8 9 7 10 8 7 9 10 9 5 8 9 14 4 7 9 9 11 13 13 11 16 14 13 15 19 20 18 19 17 17 18 18 18 16 14 12 10 10 11 10 10 10 11 11 11 10 10 8 7 7 7 6 6 6 6 6 6 5 4 4 5 4 5 3 4 3 4 4 4 3 3 4 3 4 3 2 2 2 2 3 3 3 2 2 1 1 1 1 0 0 4 6
8 10 5 3 4 7 5 6 7 7 9 9 7 8 9 12 9 9 14 12 9 9 12 14 16 14 15 17 16 12 10 8 8 9 7 8 9 9 8 8 11 11 12 12 10 11 11 11 11 12 10 11 8 8 7 7 6 6 6 6 6 6 4 5 5 4 5 4 3 3 3 4 3 4 4 4 3 4 3 3 3 3 2 4 3 2 2 2 2 1 0 1 1 1 2 5 7
3 2 6 4 4 4 6 6 5 6 3 5 5 9 9 9 9 11 14 18 15 12 10 13 16 16 19 19 19 17 16 16 11 10 11 9 10 11 11 9 10 12 13 13 12 11 10 11 12 12 11 10 9 8 7 7 7 7 7 7 6 5 5 5 4 5 5 4 4 4 5 4 5 5 4 3 4 3 3 4 3 3 3 2 2 3 1 1 1 1 1 1 1 1 3 6 7
5 5 4 4 6 7 4 10 11 11 6 6 8 9 8 6 7 9 10 11 10 10 11 15 18 19 19 17 16 16 18 18 18 11 6 8 11 14 14 11 12 12 11 12 12 11 11 12 12 12 11 10 8 8 8 8 7 7 7 6 5 6 5 5 5 6 5 4 5 5 5 5 5 4 5 4 3 3 3 4 3 2 2 2 2 2 1 1 1 1 0 1 3 3 5 6 7
4 5 4 5 6 5 5 6 11 9 10 11 8 10 6 6 4 12 8 8 8 8 7 10 15 16 18 20 18 15 15 16 11 9 15 13 14 15 15 15 14 12 13 13 12 11 12 13 13 12 12 10 9 9 8 7 7 7 6 5 6 6 5 6 6 6 6 5 4 5 5 5 5 5 5 4 4 4 3 3 2 3 3 2 1 1 1 1 2 0 0 0 2 4 6 5 6
4 4 5 6 5 5 3 7 10 10 9 11 8 7 10 7 13 12 8 8 6 10 11 14 13 14 15 15 15 14 16 14 13 13 17 18 16 15 19 16 16 14 10 14 13 13 14 14 13 13 12 11 10 10 8 8 7 6 6 6 6 6 6 5 6 6 6 4 4 5 5 6 5 6 5 5 5 4 4 3 2 3 2 1 1 1 2 2 1 2 3 3 4 5 7 6 6
3 0 1 5 6 7 10 5 8 12 9 11 8 11 12 17 17 9 6 8 11 7 7 12 13 13 14 16 14 14 13 13 14 16 17 14 14 15 16 15 16 13 12 10 12 14 12 10 10 10 12 12 12 9 8 7 7 7 6 6 6 6 6 6 6 6 5 4 5 5 5 5 5 4 5 4 4 4 3 3 3 3 2 2 1 1 2 1 3 3 5 5 4 5 6 6 7
2 3 0 4 3 8 5 6 7 12 9 11 9 13 13 14 16 10 7 7 15 13 10 8 10 12 12 9 11 14 13 15 19 20 17 15 12 10 11 11 14 13 11 12 15 16 14 12 10 9 12 12 12 10 10 9 7 7 7 6 6 6 6 6 6 5 4 5 5 5 5 5 4 5 4 5 4 4 4 4 4 2 1 2 2 2 3 2 2 4 6 6 5 5 6 5 6
2 1 8 2 8 9 5 5 9 15 6 9 10 13 17 14 11 9 10 7 8 14 10 9 9 11 11 12 14 12 13 15 17 16 9 9 7 9 11 13 14 14 15 15 14 14 14 13 13 12 12 13 12 11 10 10 9 8 7 7 6 6 6 6 6 5 5 5 5 6 5 4 4 5 5 5 5 4 4 4 3 2 1 2 2 2 3 3 3 5 3 7 7 5 6 5 5
2 6 3 8 6 10 4 9 6 14 9 5 15 12 13 14 10 7 10 11 9 11 12 10 9 9 11 12 11 12 12 9 9 10 12 11 10 9 10 12 15 15 14 15 15 15 14 14 14 14 15 15 13 12 10 9 8 8 7 7 7 7 6 6 6 5 5 5 5 5 5 5 4 4 5 5 5 5 4 4 3 2 2 2 3 3 3 2 3 5 4 3 8 6 6 7 5
5 2 7 4 8 6 10 3 7 6 12 8 10 14 17 7 9 6 8 11 11 13 15 9 13 12 12 12 13 13 13 14 15 15 15 14 12 11 10 12 13 11 11 13 15 16 16 15 14 14 13 13 12 11 10 9 8 8 7 7 6 7 7 6 5 5 5 5 5 5 5 5 5 4 4 4 4 4 3 3 3 3 2 2 3 3 2 2 4 6 6 4 4 8 6 8 7
10 6 4 5 3 4 3 4 1 4 6 13 11 16 19 8 3 9 9 7 10 15 15 11 15 15 13 12 12 14 13 15 18 18 18 16 14 12 11 12 13 12 10 13 13 14 13 13 12 12 12 12 10 10 10 9 9 8 7 7 6 6 5 6 6 5 5 5 6 5 5 5 5 5 5 5 5 4 4 4 4 4 3 3 4 4 3 4 4 3 8 6 5 3 6 6 8
3 2 3 1 3 5 6 5 10 4 5 10 16 16 17 13 7 5 5 9 12 12 11 10 13 12 12 12 13 13 13 16 17 17 18 15 15 15 13 12 12 11 11 12 13 13 13 12 11 11 11 12 9 8 8 8 7 8 8 5 5 5 5 6 5 6 6 6 5 5 5 4 4 5 5 5 5 4 4 4 4 4 3 3 4 4 4 5 6 6 7 9 7 5 4 5 7
6 5 3 4 5 4 2 7 7 6 4 8 13 20 20 13 12 10 8 6 9 11 9 10 12 12 12 12 13 15 16 17 18 15 10 12 14 12 11 10 10 10 11 12 13 14 14 14 12 13 11 11 10 9 9 9 9 7 6 9 8 6 6 5 5 5 5 5 6 6 5 5 5 5 5 5 5 5 4 4 4 3 4 4 4 4 4 5 6 7 7 6 10 7 3 2 3
2 5 6 7 5 7 3 4 4 8 1 4 8 18 24 18 9 11 12 7 11 12 10 11 13 14 13 14 14 15 16 14 6 4 6 5 7 9 10 11 12 14 14 15 16 16 14 13 14 12 10 11 11 11 9 9 8 9 8 7 4 5 5 6 5 4 5 5 5 5 5 5 5 5 5 5 5 5 5 5 4 5 4 5 3 3 4 6 6 7 7 6 1 7 6 5 6
3 3 5 6 8 6 8 9 8 8 3 7 10 14 19 19 15 8 10 14 10 12 13 14 16 14 15 17 19 18 14 9 7 12 12 12 13 13 12 12 14 17 17 18 16 14 13 13 13 12 11 11 10 10 10 10 5 6 7 5 7 4 1 2 6 5 5 6 5 5 5 5 6 5 5 5 5 5 5 5 5 4 4 5 5 5 5 6 7 8 8 9 5 2 2 3 2
5 4 4 8 6 4 6 4 4 7 3 4 5 9 12 12 14 14 10 9 9 7 10 10 12 17 18 17 16 18 18 14 13 14 14 12 12 13 12 12 14 12 12 12 13 16 13 12 12 12 12 11 10 10 9 8 8 5 4 8 5 5 5 3 3 4 5 5 5 4 4 5 5 5 5 4 4 4 5 5 5 5 5 4 6 6 6 6 5 6 5 7 8 6 3 5 2
4 6 6 7 7 7 8 5 8 10 11 5 10 11 10 5 11 11 7 9 9 10 6 8 10 12 16 16 16 17 19 18 17 15 12 10 11 13 16 17 13 14 15 16 16 15 13 16 15 15 13 13 11 10 10 9 8 7 6 6 6 6 5 5 5 4 5 5 5 4 5 4 5 5 5 5 5 5 4 5 5 5 5 4 4 6 6 7 7 7 8 7 8 9 6 3 3
4 5 8 8 6 6 5 6 6 3 7 4 3 7 15 6 10 16 12 8 12 10 11 10 11 9 11 14 15 15 17 18 20 19 18 18 18 16 13 10 12 14 15 16 16 15 13 13 13 13 11 11 11 12 12 11 10 10 9 9 9 7 8 8 10 10 7 6 7 4 4 5 5 4 5 5 5 4 5 5 4 5 5 5 5 5 6 5 6 7 8 9 7 5 9 6 4
4 4 8 11 10 8 7 7 3 5 8 6 4 9 9 2 8 11 13 12 14 12 12 9 8 9 9 11 13 14 16 13 9 13 17 19 18 17 16 15 17 17 17 14 12 13 14 13 13 14 12 11 11 12 13 11 11 10 12 11 9 9 10 6 5 6 7 5 4 5 5 4 4 6 4 4 4 4 4 4 5 4 5 5 4 4 5 6 6 7 6 6 7 6 5 7 7
6 4 5 6 9 10 11 9 9 6 3 12 6 1 3 5 8 5 10 14 15 14 14 14 9 9 11 12 14 14 16 17 16 16 13 15 18 19 19 19 17 19 17 13 13 13 15 16 15 14 11 11 11 12 13 13 13 11 11 10 9 10 10 9 7 6 4 5 6 5 5 4 4 5 5 4 5 5 4 4 4 4 4 3 4 5 5 4 5 3 5 6 5 6 7 8 6
5 6 7 9 8 8 9 8 7 8 7 11 12 2 5 3 6 7 6 13 17 17 15 17 17 12 15 17 16 15 16 18 18 16 17 18 17 16 17 18 19 18 13 14 15 16 15 14 14 13 13 12 12 14 14 13 12 12 12 10 9 7 8 7 6 5 6 5 5 4 4 4 4 4 4 5 5 5 5 5 4 4 4 4 3 4 3 4 6 6 5 6 6 5 5 4 7
6 9 7 7 8 8 8 7 8 7 6 11 14 7 5 4 5 9 3 9 16 17 18 20 21 20 14 13 11 12 13 15 17 19 20 20 20 19 19 19 18 15 15 13 10 9 11 12 14 15 14 12 12 14 13 13 12 12 11 11 12 9 7 7 7 7 6 6 6 5 5 5 5 5 4 4 5 4 4 4 4 5 4 4 3 4 4 4 3 4 6 6 6 6 3 5 7
7 6 5 8 8 6 5 6 5 4 8 11 16 16 6 7 6 8 7 6 10 13 15 17 18 17 9 8 13 13 14 14 14 16 18 20 21 22 20 20 18 14 9 10 11 12 12 13 14 16 15 12 12 14 14 14 12 12 12 12 13 12 11 10 9 8 7 6 7 6 5 5 5 6 5 3 4 4 4 4 5 4 4 3 4 4 5 5 4 4 3 4 5 7 5 5 3
1 1 2 4 7 4 4 3 4 7 8 8 14 15 8 11 4 7 8 9 10 11 13 15 15 14 11 10 10 12 15 15 15 15 16 17 16 17 15 14 12 12 11 12 12 13 13 13 14 15 13 13 13 13 14 13 12 12 11 12 13 13 13 11 12 11 10 10 8 7 5 5 5 4 4 4 3 4 5 4 4 4 4 4 4 4 4 4 4 4 4 4 4 3 4 5 5
3 3 4 4 3 3 5 5 7 6 8 8 10 10 8 14 10 8 12 14 11 7 10 12 14 14 13 12 13 13 14 15 17 16 16 16 17 16 14 15 13 12 14 17 17 16 15 14 16 17 15 14 14 14 14 13 12 12 12 12 12 11 13 12 12 11 10 10 8 8 7 7 5 5 5 6 4 5 5 5 5 5 4 3 4 4 4 4 4 5 5 4 5 6 7 7 7
6 5 4 4 6 5 4 4 3 5 8 12 11 6 11 3 6 17 21 21 17 15 10 11 15 14 13 14 13 13 14 16 16 17 17 18 18 18 18 18 17 17 17 17 16 15 15 15 17 17 16 14 13 13 14 14 13 12 11 12 11 11 12 12 11 11 10 9 8 9 9 8 8 8 7 7 6 5 4 5 5 4 4 4 4 4 5 4 4 5 5 6 5 4 5 5 6
5 2 5 7 6 3 4 4 8 7 6 9 12 9 4 9 5 10 16 17 18 16 16 11 10 13 14 14 14 15 16 16 16 17 18 19 19 20 19 18 18 18 19 17 14 14 13 14 15 17 15 15 15 15 13 14 12 12 11 11 11 10 11 10 10 9 10 9 8 8 7 6 7 7 7 5 5 5 5 5 4 5 4 4 4 4 4 4 3 4 4 4 4 4 5 6 6
6 7 6 5 8 6 5 5 5 5 7 5 8 7 5 8 4 5 7 7 9 11 12 10 12 10 11 11 13 14 15 17 16 16 17 18 19 19 18 17 18 18 17 15 16 15 15 16 17 18 18 16 15 14 14 14 13 11 11 12 12 11 9 9 8 7 8 8 9 9 8 7 6 6 5 6 5 6 6 5 4 5 5 5 4 5 5 5 4 5 4 5 5 2 6 6 6
2 1 4 8 7 6 4 5 3 1 3 5 1 4 9 6 9 6 11 13 14 11 11 10 12 14 12 13 13 14 15 16 16 16 16 17 16 17 17 18 17 15 14 16 18 19 20 18 16 16 14 12 14 15 14 12 12 12 12 12 11 11 12 12 11 11 10 9 8 8 8 7 6 6 6 5 6 4 5 6 6 5 5 4 4 4 4 4 4 5 5 5 5 4 5 6 5
2 5 6 5 6 7 5 4 3 2 3 5 3 6 4 9 11 5 8 7 9 10 11 12 13 15 15 15 13 15 16 17 18 19 19 20 20 19 18 16 18 18 20 20 19 17 15 15 17 17 15 16 15 15 14 14 14 13 12 13 13 13 12 11 11 11 9 9 7 6 6 7 7 7 7 6 6 6 5 5 6 5 4 4 5 4 4 4 5 5 4 4 4 5 6 4 4
7 8 2 1 0 5 4 4 7 3 1 1 4 6 10 11 7 2 9 12 15 14 10 10 13 15 17 14 12 13 16 16 17 18 17 17 16 17 19 20 19 18 16 15 15 15 14 14 15 16 18 18 17 14 13 12 13 11 11 13 13 12 11 10 10 10 9 10 10 9 9 9 6 7 7 7 7 6 6 5 5 5 5 5 4 4 4 5 5 6 4 5 4 5 6 5 4
10 4 5 4 6 5 4 5 3 4 1 2 7 2 6 5 6 6 7 9 14 14 11 12 16 15 15 14 12 14 14 14 16 16 16 17 18 20 21 20 18 16 15 15 15 14 15 16 15 14 12 10 11 13 13 13 13 12 11 11 11 11 11 11 11 11 10 10 10 10 9 8 9 7 7 7 7 7 7 7 5 6 5 4 5 4 5 5 5 5 5 6 4 5 6 6 4
5 3 3 2 2 4 3 2 2 4 4 4 2 3 4 6 7 7 10 11 10 9 11 13 16 16 16 15 13 13 14 15 16 16 17 18 18 19 20 18 15 12 10 11 13 17 17 13 14 14 16 15 15 15 13 13 12 12 13 14 13 12 12 11 11 11 11 10 10 9 9 8 7 8 8 8 8 8 7 7 7 6 6 6 5 5 4 5 5 5 4 5 5 5 7 5 5
1 3 5 6 3 5 4 6 2 1 3 3 3 7 7 10 3 9 13 16 12 11 11 11 12 14 15 15 14 13 14 15 17 18 18 18 19 19 16 11 9 11 13 15 15 13 13 14 14 13 13 14 15 15 14 13 13 12 15 14 14 12 12 11 11 11 11 10 10 9 9 8 9 8 8 9 8 7 7 7 7 6 6 6 6 6 5 5 6 5 4 4 6 6 6 6 5
Wind_Direction
306 78 127 129 120 148 110 338 59 302 37 275 292 354 250 291 182 129 195 330 168 263 291 53 121 133 130 156 134 137 143 145 202 136 220 232 343 132 123 128 129 129 132 138 145 148 146 150 151 148 148 146 145 142 142 141 139 138 133 129 130 129 128 127 126 126 125 122 118 119 123 127 128 126 128 135 134 135 130 134 125 114 112 111 111 110 109 109 102 91 79 71 66 62 58 57 56
276 93 108 126 153 113 228 126 99 350 35 9 255 151 275 319 110 163 182 197 199 166 173 116 110 106 102 103 114 104 230 201 188 212 92 115 88 72 137 136 139 138 140 141 143 140 144 152 152 149 149 147 146 144 144 142 141 139 132 131 132 131 130 128 127 126 126 122 119 120 123 124 123 122 117 94 98 127 121 128 119 118 110 108 115 115 113 107 96 82 73 66 59 54 53 53 51
205 110 93 86 47 86 286 54 288 47 55 312 275 214 311 45 105 253 221 182 161 157 125 91 101 96 111 127 79 115 250 142 95 105 104 136 130 180 148 141 139 137 138 142 140 142 145 152 151 152 149 148 147 146 146 143 143 141 136 133 136 135 132 130 129 128 126 121 117 119 122 126 123 117 110 110 131 133 135 134 128 118 115 116 122 118 113 103 89 75 68 60 53 50 48 46 46
152 183 136 146 91 14 57 25 106 138 202 214 304 276 330 346 4 181 205 213 194 130 133 132 101 276 119 191 153 112 12 301 201 153 166 182 171 142 145 138 134 131 129 136 142 143 147 153 153 152 149 148 147 148 145 144 144 143 138 137 139 138 135 132 129 128 127 123 119 119 122 122 120 115 113 133 136 132 128 128 125 121 122 125 123 118 112 97 81 70 62 57 49 44 41 40 37
129 139 127 135 119 293 135 210 157 114 196 209 229 278 107 318 347 320 276 155 185 143 131 139 79 42 328 108 97 142 200 114 139 154 136 116 116 138 140 136 134 133 133 135 139 144 152 154 154 151 150 149 149 149 146 146 146 144 139 140 142 139 137 134 131 128 127 124 122 121 125 122 122 111 119 129 129 130 131 129 125 125 126 120 114 104 98 85 71 64 61 52 42 37 35 33 32
87 86 343 45 244 198 47 343 295 234 210 149 255 266 113 286 353 28 28 33 118 133 129 119 152 155 55 315 157 79 134 153 179 167 147 145 138 139 141 137 134 133 134 139 144 148 156 155 153 150 150 149 150 150 148 148 149 144 143 144 141 141 139 136 133 130 127 127 123 125 124 122 120 114 116 124 130 133 128 129 122 116 115 112 107 103 100 86 71 61 55 44 35 28 30 30 29
132 95 21 360 299 61 179 183 239 232 260 174 215 245 46 318 347 66 56 34 342 344 341 166 106 80 73 287 19 29 2 136 132 168 144 143 132 140 143 138 134 133 137 140 144 149 154 153 150 149 149 150 152 151 150 150 149 147 147 143 141 143 144 140 133 128 130 128 128 131 132 127 127 120 119 117 119 125 127 127 122 118 114 112 109 107 97 77 63 54 44 35 25 23 27 30 30
122 137 206 137 250 62 201 214 250 173 272 184 222 149 63 304 320 65 127 148 224 202 309 172 126 110 240 10 166 306 58 43 102 111 122 138 137 142 145 142 135 137 139 141 146 149 156 148 151 150 149 151 152 151 152 152 151 151 148 142 144 148 146 138 132 130 132 132 132 133 137 135 131 129 125 119 117 122 126 121 119 116 116 113 110 100 79 66 54 46 37 30 21 18 24 30 32
24 117 265 70 226 25 78 216 238 245 264 271 278 93 147 242 282 5 176 177 170 154 249 172 136 108 220 95 167 321 357 84 96 121 132 140 141 147 146 147 142 139 140 143 147 156 144 151 150 152 150 151 151 151 154 154 155 154 150 147 149 149 141 137 134 136 138 137 135 135 136 137 136 135 133 127 123 127 129 127 122 122 118 116 110 95 77 63 50 41 32 25 18 17 24 30 33
50 108 273 176 123 224 225 287 205 242 199 208 191 121 233 245 9 31 305 63 80 46 354 344 11 93 130 112 47 344 122 106 111 114 137 143 143 144 144 147 144 139 142 144 150 146 147 150 148 151 152 152 151 152 155 157 157 156 154 151 147 145 142 141 139 143 144 142 139 136 137 136 139 140 139 138 136 135 135 133 129 126 123 121 111 88 76 58 47 33 28 19 15 16 22 29 32
264 7 132 200 245 226 213 247 255 287 254 194 245 152 199 241 79 93 17 52 115 119 15 351 7 93 57 355 278 329 115 130 125 139 148 145 145 143 140 143 143 144 143 149 145 143 153 150 148 152 152 149 150 150 152 156 158 158 154 150 149 150 146 143 144 145 147 147 145 140 137 141 143 148 148 148 147 144 144 140 137 131 133 122 106 87 72 56 38 26 21 16 14 15 21 28 31
269 230 185 217 225 200 223 212 233 257 278 187 245 125 237 63 41 77 40 59 96 102 125 301 271 184 52 355 303 122 140 149 140 139 144 145 142 140 138 138 139 141 141 141 142 146 147 151 147 154 152 148 146 150 152 155 156 154 156 154 156 153 147 147 149 152 154 154 151 146 143 146 154 166 157 154 154 156 152 148 146 143 132 122 109 93 73 47 31 17 15 15 15 16 20 27 30
202 160 117 143 223 199 208 208 231 233 274 265 158 151 118 60 51 2 37 86 70 131 151 196 174 255 142 211 210 132 158 156 146 141 142 143 138 135 134 136 141 140 140 139 142 146 148 145 149 149 153 152 151 152 152 153 153 153 159 158 158 154 153 154 156 159 159 157 153 151 151 154 163 167 157 160 162 159 159 158 152 145 137 129 118 84 66 48 14 10 14 15 16 19 19 25 26
180 180 135 236 175 195 181 221 199 210 241 262 174 139 84 103 70 271 81 75 340 5 303 144 127 72 71 97 183 181 175 145 142 135 132 130 131 135 137 138 139 140 141 143 146 146 144 146 148 149 155 152 155 156 157 153 156 159 161 160 161 158 161 161 162 164 162 159 158 157 158 163 170 170 167 169 162 162 164 160 158 157 154 143 119 87 66 28 14 6 8 11 15 18 17 19 20
191 172 120 164 228 180 209 206 203 202 241 233 254 118 103 115 123 336 90 94 256 108 208 44 130 101 246 195 221 195 154 142 133 128 121 118 123 131 134 137 138 140 142 146 145 146 148 143 145 148 147 151 152 148 152 159 160 163 164 164 160 148 155 161 166 164 165 164 163 163 166 169 173 174 170 167 171 159 173 166 154 170 170 162 139 126 75 26 10 7 359 3 9 11 7 9 12
186 121 129 213 229 193 251 218 191 208 235 218 254 91 94 136 126 89 101 108 2 358 184 173 121 169 227 223 229 158 143 131 132 126 121 117 119 123 130 136 139 142 146 147 150 151 146 143 144 144 147 151 150 146 149 159 166 167 169 168 166 164 162 160 165 170 173 171 170 171 174 174 174 175 177 173 173 171 174 156 178 173 184 178 156 153 127 19 360 353 349 350 349 353 344 351 4
64 121 214 212 236 199 211 198 170 222 165 227 219 178 232 102 123 92 117 99 115 252 218 170 156 188 170 208 173 134 137 132 132 129 121 123 132 137 138 136 141 146 151 154 156 152 148 145 145 142 151 152 153 150 153 157 170 170 172 174 177 180 184 188 187 187 186 184 179 181 180 168 169 172 178 164 175 171 170 175 183 182 189 187 192 176 203 336 334 328 327 323 325 320 327 338 353
144 201 209 230 214 209 193 198 188 202 166 207 200 180 174 171 77 121 98 104 194 262 265 146 63 45 110 49 132 138 136 137 141 137 140 142 151 144 147 153 156 160 161 159 160 155 152 155 154 151 154 159 160 156 158 161 168 168 157 178 185 189 191 196 197 190 190 174 189 189 157 159 158 167 161 176 171 172 183 187 194 195 200 205 205 217 265 292 300 304 308 304 305 308 311 357 12
190 195 193 230 196 226 171 183 207 169 208 190 216 206 172 208 129 198 94 151 163 201 249 337 76 54 79 88 139 145 144 143 148 148 152 155 160 158 161 162 168 163 164 165 163 163 161 160 160 161 161 163 167 165 161 165 156 137 151 167 191 197 204 200 193 183 149 169 191 164 152 153 157 169 176 179 153 182 193 199 203 205 209 214 215 228 249 271 280 288 290 295 296 297 308 328 46
222 195 219 227 174 204 200 177 206 213 167 199 200 196 184 205 157 189 159 169 158 168 176 266 111 125 119 124 156 160 154 153 157 158 160 163 163 163 162 169 172 175 170 170 166 164 163 162 164 167 167 166 170 170 162 164 141 139 144 162 197 198 216 198 178 160 149 171 182 152 148 167 173 166 198 194 193 189 203 210 210 217 214 217 221 238 268 279 281 294 291 289 294 307 292 283 94
229 216 226 210 178 170 222 197 201 214 179 200 211 170 192 213 184 199 147 174 184 183 188 166 171 154 140 137 165 176 167 161 167 166 161 165 166 169 172 175 175 171 169 162 164 168 167 165 164 169 169 170 172 170 171 167 141 145 153 176 194 204 212 189 166 147 165 187 182 161 155 184 177 173 226 260 185 182 196 234 241 221 223 225 244 210 270 283 300 299 306 298 270 252 242 189 112
244 223 230 165 178 203 203 202 200 197 202 205 203 194 222 140 138 205 169 208 219 170 217 197 157 156 149 153 176 185 196 182 174 172 170 168 170 174 178 164 152 156 160 167 173 169 170 167 166 168 170 175 176 172 172 176 158 166 172 184 194 210 203 179 160 162 182 201 190 168 165 186 176 178 205 228 252 190 196 221 227 225 201 216 234 229 255 249 266 266 271 265 251 217 211 141 136
247 255 230 201 188 197 196 200 209 192 198 206 205 209 215 173 203 205 199 221 217 162 184 200 172 166 171 168 163 179 185 196 189 182 173 171 173 176 175 170 163 167 172 174 171 171 169 168 169 167 173 176 182 174 166 175 171 178 175 182 188 207 194 175 191 189 204 204 190 175 174 188 180 180 200 214 234 188 208 213 222 214 209 218 230 225 241 237 235 240 238 259 267 241 224 128 121
255 247 186 214 193 210 187 202 188 197 196 206 210 204 208 167 203 170 210 224 224 183 179 171 175 175 159 147 175 180 184 191 199 192 182 177 175 178 173 170 171 162 166 170 172 171 172 173 170 171 175 178 180 174 170 181 171 174 185 191 201 202 187 192 198 205 208 206 191 182 181 179 173 182 200 204 219 186 213 203 213 221 216 218 225 205 206 189 207 210 208 245 270 225 122 101 114
252 255 249 269 243 226 217 194 196 188 208 217 221 220 214 187 191 163 209 221 211 207 193 171 168 164 156 165 174 188 198 210 219 201 192 181 174 168 176 171 163 165 167 171 170 171 176 173 171 175 176 182 176 171 176 181 173 179 185 192 200 200 190 197 200 204 212 204 195 182 187 179 183 187 196 197 177 198 191 201 200 222 212 221 203 214 195 193 224 194 55 281 251 307 63 100 114
246 290 346 302 268 258 228 231 218 193 206 197 215 233 231 215 197 218 205 207 199 191 182 175 159 162 167 170 180 180 185 198 206 213 195 170 167 169 181 178 173 175 175 168 166 175 173 172 175 177 179 179 176 172 181 180 179 182 192 197 196 193 198 197 197 206 216 191 196 189 199 182 188 188 194 175 173 176 174 184 187 202 206 196 174 210 201 158 234 35 28 347 13 13 70 110 117
333 322 302 289 285 304 268 212 221 226 220 176 203 227 235 234 187 234 226 211 196 191 188 173 164 169 172 176 182 184 186 190 195 196 191 178 172 179 181 178 182 185 170 168 171 172 173 173 178 179 180 180 173 180 181 186 177 187 193 195 183 195 199 193 202 215 212 200 199 195 194 191 185 191 185 178 172 174 180 170 175 167 192 215 195 211 154 169 58 67 68 22 10 78 89 113 123
330 305 301 293 288 276 267 255 221 210 236 228 206 234 234 247 193 225 219 220 168 164 161 169 171 173 178 177 177 189 193 196 181 177 198 183 183 184 181 182 182 181 177 175 174 171 171 179 177 179 180 178 177 182 182 183 186 191 189 182 191 197 193 197 207 212 215 202 194 194 192 190 184 195 183 179 178 179 187 184 176 177 202 207 218 192 122 76 91 139 79 18 50 96 96 97 114
316 341 357 298 300 293 242 228 223 196 223 220 216 256 253 227 231 224 215 207 202 157 169 166 175 178 184 183 184 184 194 185 179 192 207 203 187 182 185 183 174 176 184 174 172 171 177 177 177 180 177 177 181 181 183 186 188 186 180 187 194 192 196 198 209 212 216 192 189 186 188 187 189 182 185 184 182 182 181 183 188 205 193 193 180 147 110 71 61 41 58 75 83 89 94 92 95
316 35 207 313 299 273 246 245 236 211 214 202 181 238 232 237 233 223 213 210 200 202 179 175 172 178 189 192 194 193 193 174 187 202 210 208 195 192 184 179 174 172 173 175 169 178 177 176 177 175 177 178 183 181 180 182 188 187 186 190 192 190 196 198 211 214 205 180 182 184 180 185 178 170 172 178 167 170 177 184 188 201 191 164 109 83 78 51 54 73 100 98 88 95 98 107 112
207 257 76 209 248 239 222 210 212 224 208 200 184 233 236 231 238 217 215 207 193 205 208 193 186 191 203 199 192 193 188 191 193 203 208 214 203 191 183 176 174 170 166 174 177 178 175 176 173 176 178 180 182 180 181 186 184 184 189 191 194 194 193 201 211 208 189 179 175 180 175 175 167 166 167 170 172 167 171 183 191 192 151 129 110 71 105 58 60 108 125 100 82 80 91 93 111
285 300 230 237 213 244 256 244 214 214 216 191 185 235 235 227 228 210 207 205 203 201 205 198 196 200 201 200 200 196 194 198 204 204 209 229 217 190 179 183 180 173 174 174 174 174 177 177 175 173 178 181 183 182 183 185 183 185 190 194 194 194 195 202 204 195 181 173 178 176 176 170 163 167 165 163 164 173 174 180 184 144 146 113 105 88 80 71 52 100 94 123 106 87 101 87 83
309 200 290 225 201 244 278 247 237 229 217 194 194 232 236 237 220 204 209 198 200 213 212 196 208 208 199 199 199 198 195 207 214 209 205 205 214 198 186 180 187 182 170 171 173 173 176 178 177 175 179 183 182 182 182 185 182 186 192 197 194 191 195 202 196 180 162 172 175 176 174 171 162 167 166 163 163 168 168 163 156 138 134 121 107 103 92 98 110 119 103 87 121 122 110 105 83
277 251 228 227 229 226 235 311 261 241 221 221 209 226 234 224 200 203 213 207 201 211 219 194 194 212 204 199 199 196 194 196 204 207 204 199 202 198 185 185 184 180 174 173 173 173 177 178 180 179 178 180 181 179 181 182 185 188 195 199 193 189 195 185 183 160 169 170 168 179 176 173 161 163 162 163 161 164 151 149 133 144 146 123 113 116 127 112 112 133 112 77 91 124 124 120 116
215 207 240 280 277 245 288 216 278 220 236 228 220 231 240 227 233 197 205 190 194 208 209 182 193 200 201 204 204 197 197 201 207 207 202 195 192 190 183 181 183 178 174 175 175 179 177 178 178 177 174 177 178 177 175 176 179 188 193 192 193 194 178 180 166 159 169 163 175 175 176 170 160 160 160 163 161 161 144 139 142 156 147 138 129 133 126 119 114 123 121 98 65 61 125 129 126
344 350 234 239 255 248 225 253 276 278 243 227 226 233 235 227 232 248 224 195 186 204 203 182 192 196 198 199 201 200 199 207 216 214 201 191 188 183 181 180 182 176 170 176 178 180 179 178 176 174 175 174 168 167 162 163 166 178 183 187 193 187 174 171 170 163 160 168 168 170 174 167 167 162 162 161 161 156 147 145 148 148 144 142 147 140 139 139 140 127 124 122 108 85 60 119 127
317 319 301 270 273 271 266 268 276 309 299 231 228 237 239 224 214 220 223 211 212 198 183 182 188 188 199 201 203 202 202 209 212 211 209 197 186 180 172 171 175 172 172 178 181 185 183 178 174 180 176 172 166 164 167 164 171 172 175 183 188 178 174 167 160 154 166 168 166 170 169 169 169 162 161 159 161 161 145 139 141 150 146 159 164 166 151 144 148 142 132 124 130 119 102 150 149
281 287 301 295 284 280 266 279 312 306 38 289 238 236 241 227 215 205 220 170 207 210 197 180 189 187 192 205 206 208 210 217 194 167 188 200 184 168 170 171 171 172 186 182 186 186 183 178 180 178 168 175 174 170 165 170 175 179 168 173 151 157 160 159 159 164 169 164 167 169 168 169 169 168 162 161 156 154 150 153 155 159 162 169 171 143 142 142 141 138 132 102 83 138 153 177 180
270 234 264 280 271 278 279 281 283 287 302 249 262 251 243 234 220 217 211 217 208 199 187 190 184 193 194 201 197 201 211 204 177 198 191 191 185 175 174 179 186 187 181 185 186 179 181 182 184 175 173 174 177 168 164 173 164 160 156 156 151 129 72 159 160 159 156 163 171 171 170 169 165 164 162 162 156 159 161 157 168 159 168 167 147 145 138 145 153 151 154 143 131 53 102 183 185
228 252 256 244 256 252 294 273 263 265 215 303 296 275 266 245 230 220 213 215 230 201 191 191 189 186 192 200 199 199 196 188 192 191 192 193 190 181 177 184 189 184 183 186 185 186 182 184 181 177 177 175 171 173 168 158 150 142 128 138 130 130 158 128 115 135 142 146 171 173 176 170 166 160 160 157 158 163 163 169 160 167 179 178 161 150 150 151 151 150 150 153 141 129 152 197 236
234 223 238 250 248 241 233 277 307 309 292 235 270 282 276 231 230 222 219 223 231 235 187 202 205 191 194 202 200 193 189 190 191 190 191 184 184 188 189 190 181 184 187 189 187 185 187 186 182 177 175 177 171 167 159 144 132 116 108 92 103 92 81 123 136 153 167 172 160 169 183 167 163 160 158 164 165 170 169 163 165 175 167 167 163 156 157 162 167 166 162 154 165 156 174 174 226
261 228 225 244 256 276 262 268 284 347 321 267 191 271 252 201 213 220 209 204 220 230 223 205 207 210 202 201 200 198 198 191 186 186 185 184 190 195 191 176 184 195 195 195 189 186 182 184 180 177 174 173 168 166 157 152 154 148 145 147 158 161 158 165 177 167 164 179 187 169 161 169 161 156 163 169 169 165 169 169 167 166 168 167 169 170 155 142 165 168 177 169 170 176 156 157 178
231 247 197 234 245 249 262 258 240 254 238 271 144 223 263 219 216 216 214 211 217 225 229 229 210 213 204 203 202 195 191 195 205 197 187 183 189 188 186 185 192 196 201 193 183 183 184 182 182 179 175 173 168 164 161 158 158 163 166 169 168 172 169 180 166 172 172 173 155 169 168 162 162 159 169 168 167 169 160 163 167 162 157 161 152 140 155 162 172 182 170 170 172 156 146 164 173
243 241 216 224 225 230 241 245 235 244 265 277 263 162 241 300 296 257 213 211 220 224 226 234 224 198 208 209 205 196 191 188 183 185 194 198 191 187 186 192 194 199 197 181 184 183 184 185 181 180 174 171 172 166 170 168 165 169 167 167 168 169 176 169 165 165 155 153 157 165 157 164 162 162 161 165 166 165 159 160 158 155 144 127 149 164 163 156 143 153 172 168 157 167 169 161 177
232 240 211 234 228 230 232 230 239 237 245 262 277 213 281 225 260 272 217 204 217 220 220 229 234 210 202 209 206 199 191 187 184 185 185 189 196 196 195 196 200 198 184 185 187 188 184 180 179 177 176 172 172 172 173 175 170 171 168 163 166 170 162 157 150 150 154 155 153 151 153 155 156 158 157 157 161 160 160 158 156 148 144 155 160 142 147 159 157 151 151 153 166 174 179 168 157
246 248 231 230 234 236 228 223 226 236 217 248 258 231 226 261 276 294 285 218 209 216 219 223 226 229 208 204 208 199 194 192 190 186 185 189 191 194 198 201 200 195 192 188 181 176 180 179 180 180 179 175 172 175 176 176 173 168 168 170 163 161 155 144 150 157 160 162 162 164 154 151 157 156 161 158 152 154 145 150 158 160 160 152 153 155 141 139 147 157 169 168 167 168 170 157 179
273 318 292 258 247 243 241 225 214 242 240 236 245 248 194 278 228 222 233 219 213 210 220 223 226 232 232 201 193 192 193 196 196 192 190 191 192 195 197 199 199 193 181 173 177 183 182 182 183 183 181 174 173 176 177 178 174 174 172 169 166 162 159 154 156 162 160 163 166 167 163 160 158 164 161 160 152 145 143 152 156 159 153 154 145 148 159 160 162 154 148 145 160 163 160 150 117
258 344 271 273 270 243 254 261 181 220 253 234 237 245 194 236 259 253 249 264 237 216 216 224 227 226 219 209 202 197 191 193 196 194 193 196 199 203 199 199 194 190 180 178 182 181 183 185 183 182 179 178 176 177 179 178 176 178 172 170 169 167 162 165 169 171 174 175 171 168 160 147 164 161 160 151 156 154 145 143 146 144 150 147 157 151 146 147 141 134 136 143 145 140 141 144 148
244 222 253 218 257 165 238 197 221 217 227 239 241 238 244 231 236 255 259 254 261 250 229 214 218 218 216 208 199 194 197 196 193 194 193 192 196 197 194 198 194 189 190 189 186 182 183 182 183 181 185 180 179 177 180 177 177 179 174 173 169 167 168 169 173 174 177 177 172 167 167 173 164 171 179 170 181 169 151 142 148 152 152 160 149 142 142 137 139 139 142 140 146 155 164 158 160
211 213 186 179 213 214 211 205 208 227 233 244 240 241 246 277 230 215 241 253 260 259 253 237 219 213 207 208 196 192 196 197 198 195 193 193 194 195 195 194 192 194 196 192 187 183 182 184 183 184 184 180 177 177 179 179 183 179 175 172 170 168 172 172 175 175 180 180 176 176 178 175 178 184 174 186 175 165 160 159 154 155 153 150 151 148 144 145 140 142 144 145 152 147 135 141 137
180 203 181 180 213 193 197 185 194 207 224 231 224 244 202 187 239 196 221 238 244 249 245 239 236 213 209 207 193 191 192 199 198 198 197 196 195 193 193 195 196 196 195 189 184 186 181 181 183 185 180 183 179 179 177 181 180 178 174 172 170 171 171 173 175 178 177 176 177 176 178 172 178 180 179 170 160 160 155 147 151 148 150 148 142 138 134 128 126 118 124 128 121 135 132 131 133
259 251 248 225 214 225 230 198 178 219 211 237 213 209 197 205 223 204 232 239 247 251 250 230 229 220 210 207 196 194 195 195 197 200 202 200 196 195 195 196 197 197 190 185 187 182 182 186 186 185 184 181 179 176 182 181 179 174 172 173 173 170 169 170 171 174 179 178 176 175 176 174 176 164 163 156 166 157 154 151 149 151 149 146 147 144 143 138 135 128 121 129 127 136 133 129 136
268 306 209 216 203 204 251 278 245 200 32 280 232 242 252 295 299 231 240 250 265 268 260 237 224 223 207 208 198 193 195 195 195 197 197 199 200 200 198 196 198 194 184 187 189 187 187 183 180 182 183 179 180 182 180 178 174 172 175 173 169 171 171 173 174 177 176 177 174 174 169 171 157 163 161 161 155 157 154 151 148 148 147 145 140 143 143 139 139 138 141 139 136 136 128 134 136
236 260 253 293 227 206 183 207 272 194 198 255 215 210 220 210 254 221 233 253 250 255 245 239 223 219 214 212 202 193 192 195 195 195 196 197 196 195 198 203 200 191 189 191 189 187 184 179 180 179 179 181 184 180 178 177 174 174 172 174 174 174 173 175 172 173 171 167 169 162 152 156 175 170 161 159 154 152 154 153 146 149 145 142 146 143 142 139 133 131 139 136 140 134 119 109 126
210 239 180 245 297 202 229 208 228 245 232 256 297 213 219 209 236 222 199 231 249 249 248 244 233 220 217 211 201 202 195 191 193 197 198 199 197 196 198 201 201 199 193 188 184 178 176 178 182 183 184 186 181 178 176 176 175 174 174 175 172 171 173 171 171 169 166 169 170 169 172 173 157 159 157 155 154 153 152 150 149 146 147 144 140 145 141 139 139 132 135 131 135 132 127 127 134
221 242 236 167 140 225 210 198 198 126 223 37 293 250 234 204 207 197 225 221 236 246 245 246 239 224 217 210 200 192 195 194 190 195 200 198 196 198 200 201 197 188 182 181 178 176 179 182 179 184 182 173 171 176 177 177 177 172 171 168 171 171 170 170 169 167 170 173 172 170 170 164 172 162 161 157 157 157 156 151 152 149 148 145 147 146 148 142 136 139 138 136 143 135 131 137 138
209 201 258 163 216 222 223 274 170 168 176 174 216 314 285 254 197 212 253 244 232 228 236 233 235 230 225 216 195 195 190 190 190 193 198 200 201 203 202 200 193 182 176 171 174 180 183 178 181 179 176 177 180 180 176 178 174 173 166 171 171 169 171 169 168 170 170 172 170 170 172 169 151 168 160 161 162 161 157 155 153 158 158 159 155 153 151 144 137 134 135 139 141 143 137 141 136
169 191 213 187 187 214 225 277 301 188 155 212 199 249 267 267 259 204 214 247 253 244 235 242 246 239 230 225 216 186 189 190 189 195 198 198 201 202 199 185 166 166 172 177 179 178 175 182 185 179 179 181 180 178 179 175 176 173 172 170 169 169 169 168 167 170 172 169 169 171 165 154 170 168 166 164 162 160 157 156 156 160 161 160 160 155 154 148 143 140 142 147 148 148 143 146 142